Weather Service Report


607 
ASUS41 KGYX 172110
RWRGYX
WEATHER ROUNDUP FOR MAINE AND NEW HAMPSHIRE
NATIONAL WEATHER SERVICE GRAY ME
500 PM EDT THU APR 17 2014

MEZ002-005-006-010-012-015-018-020-021-024-026-027-029-172200-
MAINE
  
CITY           SKY/WX    TMP DP  RH WIND       PRES   REMARKS
PORTLAND       CLOUDY    39  18  42 SE7       30.78S                  
SANFORD        SUNNY     39 -11  11 SE6       30.76S                  
BAR HARBOR     SUNNY     39  21  48 E6        30.75S                  
WISCASSET      SUNNY     41  21  44 VRB6      30.77F                  
ROCKLAND       SUNNY     37  21  52 SE12      30.77S                  
FRYEBURG       MOSUNNY   46  13  26 E7        30.72F                  
LEWISTONAUBURN MOSUNNY   45  16  31 S6        30.73S                  
AUGUSTA        MOSUNNY   44  12  27 NE5       30.73F                  
WATERVILLE     PTSUNNY   45  12  26 N5        30.70S                  
BANGOR         PTSUNNY   46  12  25 VRB6      30.74F                  
GREENVILLE       N/A     38  10  31 S5        30.66F                  
MILLINOCKET    MOSUNNY   43  12  28 E7        30.74F                  
HOULTON        MOSUNNY   40   7  25 N3        30.74S                  
PRESQUE ISLE   MOSUNNY   39  12  33 SE8       30.75S                  
FRENCHVILLE    SUNNY     37  11  34 SE6       30.70S                  
CARIBOU        MOSUNNY   39  12  33 SE9       30.73S                  
$$

NHZ002-005-008-009-011-012-014-172200-
NEW HAMPSHIRE
  
CITY           SKY/WX    TMP DP  RH WIND       PRES   REMARKS
PORTSMOUTH     PTSUNNY   37  23  57 E13       30.77F                  
ROCHESTER      SUNNY     39  14  36 E8        30.75S                  
NASHUA         SUNNY     41  21  44 E12       30.75S                  
MANCHESTER     PTSUNNY   41  18  39 E14G21    30.73S                  
CONCORD        SUNNY     44  16  32 SE10G17   30.72S                  
LACONIA        MOSUNNY   45  12  26 SE8       30.70S                  
PLYMOUTH         N/A     46  14  27 E3        30.68F                  
BERLIN         MOSUNNY   45  15  30 S8        30.65F                  
WHITEFIELD     MOSUNNY   46  18  32 SE5       30.63F                  
JAFFREY        SUNNY     41  18  39 VRB7      30.67F                  
LEBANON        MOSUNNY   47  11  23 SE7       30.66F                  
MT WASHINGTON  PTSUNNY   25  -8  24 S15         N/A  WCI  12          
$$

VTZ005-007-008-172200-
VERMONT
  
CITY           SKY/WX    TMP DP  RH WIND       PRES   REMARKS
ST JOHNSBURY     N/A     46  15  28 MISG      30.63F                  
MONTPELIER     MOSUNNY   44  11  26 SE10      30.66F                  
BURLINGTON     PTSUNNY   48  18  30 VRB5      30.63F                  
$$

MAZ007-012-024-CTZ003-RIZ002-NYZ038-NYZ072-172200-
SOUTHERN NEW ENGLAND AND NY
  
CITY           SKY/WX    TMP DP  RH WIND       PRES   REMARKS
BOSTON         CLOUDY    38  26  62 E14       30.77F                  
WORCESTER      SUNNY     40  21  46 E12       30.68S                  
NANTUCKET      MOSUNNY   40  26  57 NE18G26   30.69F                  
PROVIDENCE     PTSUNNY   43  24  47 NE14G22   30.72F                  
HARTFORD       PTSUNNY   51  19  28 SE9       30.65F                  
ALBANY         PTSUNNY   53  16  23 S8        30.61F                  
NEW YORK CITY  PTSUNNY   46  27  47 E9        30.66F                  
$$

ANZ081-ANZ082-ANZ150-NHZ014-MEZ023>029-172200-
COASTAL MARINE OBSERVATIONS
  
STATION/POSITION TIME  TEMP    WIND        PRES    WAVE
                       AIR SEA DIR/SP/G            HT/PER
                 (UTC) (F)     (DEG/KT/KT) (MB)    (FT/S)
MOUNT DESERT ROC 2100   36                 1041.2F
MATINICUS ROCK   2100   36     100/ 11/ 12 1042.0S
PORTLAND WX BUOY 2100   36 40  130/ 12/ 16 1042.1F   4/ 6
WELLS            2100   36 40  130/  6/ 10 1041.7S
ISLE OF SHOALS   2100   35      90/ 12/ 13 1041.6F
JEFFREYS LEDGE   2100      41                N/A     6/10
CASHES LEDGE BUO 2100   36 41   70/ 14/ 16   N/A     6/ 7
$$

.............KEY..............
   WCI - WIND CHILL
   TC  - TEMPERATURE IN CELSIUS
   VSB - VISIBILITY IN MILES
   HX  - HEAT INDEX
   FAIR- INDICATES FEW OR NO CLOUDS BELOW 12,000 FT, WITH NO 
         SIGNIFICANT WEATHER AND/OR OBSTRUCTIONS TO VISIBILITY.



Return to Home page


Western Regional Climate Center, wrcc@dri.edu